Date String (YYYY-MM-DD hh:mm:ss) UTC,Instrument flags,Ambient pressure (hPa),Sample flow (lpm),Bypass flow (lpm),Sample temperature (°C),Ambient temperature (°C),ASC tube jacket temperature (°C),LED temperature (°C),Box temperature (°C),Sample RH (%),Span deviation,Mass concentration (μg/m³),Mass concentration (μg/m³),Mass concentration (μg/m³)
DateTimeUTC,F1_M11,P_M11,Q1_M11,Q2_M11,T1_M11,T2_M11,T3_M11,T4_M11,T5_M11,U1_M11,ZSPAN_M11,X2_M11,X0_M11,X1_M11
2022-09-11 08:00:00,,0834.6,5.00,0.00,28.4,26.5,00.0,37.2,30.1,26.9,0000.0,0004.79,0006.83,0004.64
2022-09-11 08:01:00,,0834.6,5.01,0.00,28.3,26.5,00.0,37.2,30.1,26.2,0000.0,0004.79,0006.85,0004.65
2022-09-11 08:02:00,,0834.6,4.99,0.00,28.3,26.6,00.0,37.2,30.1,25.8,0000.0,0004.78,0006.82,0004.65
2022-09-11 08:03:00,,0834.5,4.99,0.00,28.3,26.5,00.0,37.2,30.0,25.7,0000.0,0004.77,0006.78,0004.65
2022-09-11 08:04:00,,0834.5,4.99,0.00,28.3,26.5,00.0,37.2,30.1,25.7,0000.0,0004.78,0006.79,0004.65
2022-09-11 08:05:00,,0834.5,5.00,0.00,28.3,26.6,00.0,37.2,30.1,25.7,0000.0,0004.80,0006.90,0004.66
2022-09-11 08:06:00,,0834.4,5.00,0.00,28.3,26.4,00.0,37.1,30.0,25.6,0000.0,0004.82,0006.98,0004.67
2022-09-11 08:07:00,,0834.4,5.01,0.00,28.2,26.2,00.0,37.1,29.9,25.7,0000.0,0004.81,0006.85,0004.68
2022-09-11 08:08:00,,0834.4,5.00,0.00,28.2,26.2,00.0,37.1,29.9,25.8,0000.0,0004.82,0006.94,0004.69
2022-09-11 08:09:00,,0834.4,5.01,0.00,28.2,26.4,00.0,37.1,29.9,25.8,0000.0,0004.82,0006.93,0004.70
2022-09-11 08:10:00,,0834.4,5.00,0.00,28.2,26.4,00.0,37.1,30.0,25.8,0000.0,0004.83,0006.90,0004.71
2022-09-11 08:11:00,,0834.4,5.00,0.00,28.2,26.4,00.0,37.0,29.9,25.8,0000.0,0004.83,0006.75,0004.72
2022-09-11 08:12:00,,0834.3,5.00,0.00,28.1,26.2,00.0,37.0,29.9,25.7,0000.0,0004.84,0006.71,0004.73
2022-09-11 08:13:00,,0834.3,4.99,0.00,28.1,26.0,00.0,37.0,29.8,25.9,0000.0,0004.89,0006.82,0004.76
2022-09-11 08:14:00,,0834.4,5.00,0.00,28.0,25.9,00.0,37.0,29.7,26.0,0000.0,0004.91,0006.86,0004.77
2022-09-11 08:15:00,,0834.3,4.99,0.00,28.0,25.9,00.0,36.9,29.7,26.0,0000.0,0004.92,0006.84,0004.78
2022-09-11 08:16:00,,0834.3,4.99,0.00,27.9,25.9,00.0,36.9,29.6,26.0,0000.0,0004.92,0006.76,0004.79
2022-09-11 08:17:00,,0834.3,4.99,0.00,27.9,25.8,00.0,36.9,29.6,25.9,0000.0,0004.90,0006.63,0004.79
2022-09-11 08:18:00,,0834.3,5.00,0.00,27.9,25.7,00.0,36.9,29.5,25.9,0000.0,0004.91,0006.68,0004.79
2022-09-11 08:19:00,,0834.3,5.00,0.00,27.8,25.8,00.0,36.8,29.5,25.9,0000.0,0004.92,0006.68,0004.80
2022-09-11 08:20:00,,0834.3,5.00,0.00,27.8,25.9,00.0,36.8,29.5,25.9,0000.0,0004.95,0006.73,0004.81
2022-09-11 08:21:00,,0834.2,5.00,0.00,27.8,25.9,00.0,36.8,29.5,26.0,0000.0,0004.97,0006.84,0004.82
2022-09-11 08:22:00,,0834.3,5.01,0.00,27.8,25.9,00.0,36.7,29.5,26.0,0000.0,0004.99,0006.93,0004.83
2022-09-11 08:23:00,,0834.3,5.01,0.00,27.7,25.9,00.0,36.7,29.4,26.0,0000.0,0005.00,0007.05,0004.82
2022-09-11 08:24:00,,0834.3,5.00,0.00,27.7,25.8,00.0,36.7,29.3,25.9,0000.0,0004.98,0007.01,0004.82
2022-09-11 08:25:00,,0834.3,4.99,0.00,27.6,25.7,00.0,36.6,29.3,25.9,0000.0,0004.98,0007.01,0004.82
2022-09-11 08:26:00,,0834.3,5.00,0.00,27.6,25.7,00.0,36.6,29.3,25.8,0000.2,0004.98,0007.05,0004.82
2022-09-11 08:27:00,,0834.3,5.01,0.00,27.6,25.9,00.0,36.6,29.4,25.8,-000.1,0004.97,0007.04,0004.81
2022-09-11 08:28:00,,0834.3,4.99,0.00,27.7,26.0,00.0,36.6,29.5,25.9,-000.4,0004.98,0007.08,0004.81
2022-09-11 08:29:00,,0834.3,5.00,0.00,27.7,26.0,00.0,36.6,29.5,25.9,-000.5,0004.99,0007.09,0004.82
2022-09-11 08:30:00,,0834.3,5.01,0.00,27.7,26.0,00.0,36.6,29.4,25.9,0000.1,0005.03,0007.24,0004.85
2022-09-11 08:31:00,,0834.3,4.99,0.00,27.7,26.1,00.0,36.6,29.5,25.9,-000.1,0005.06,0007.32,0004.87
2022-09-11 08:32:00,,0834.3,4.99,0.00,27.7,26.1,00.0,36.6,29.5,25.9,-000.3,0005.06,0007.47,0004.89
2022-09-11 08:33:00,,0834.2,5.01,0.00,27.7,26.2,00.0,36.6,29.5,25.8,-000.3,0005.06,0007.57,0004.90
2022-09-11 08:34:00,,0834.2,4.99,0.00,27.7,26.2,00.0,36.6,29.6,25.9,-000.6,0005.06,0007.53,0004.92
2022-09-11 08:35:00,,0834.2,5.01,0.00,27.7,26.3,00.0,36.6,29.6,25.9,-000.3,0005.07,0007.51,0004.94
2022-09-11 08:36:00,,0834.2,4.99,0.00,27.8,26.3,00.0,36.6,29.6,25.8,-000.2,0005.08,0007.52,0004.95
2022-09-11 08:37:00,,0834.1,5.00,0.00,27.8,26.4,00.0,36.6,29.6,25.7,-000.5,0005.10,0007.54,0004.97
2022-09-11 08:38:00,,0834.1,5.01,0.00,27.8,26.4,00.0,36.6,29.7,25.6,-000.8,0005.13,0007.56,0005.00
2022-09-11 08:39:00,,0834.1,4.99,0.00,27.8,26.4,00.0,36.6,29.7,25.5,-000.4,0005.15,0007.58,0005.02
2022-09-11 08:40:00,,0834.1,5.00,0.00,27.8,26.4,00.0,36.6,29.7,25.5,0000.3,0005.14,0007.57,0005.02
2022-09-11 08:41:00,,0834.1,5.00,0.00,27.8,26.4,00.0,36.6,29.7,25.4,-000.5,0005.09,0007.56,0004.98
2022-09-11 08:42:00,,0834.1,4.99,0.00,27.9,26.4,00.0,36.6,29.7,25.3,-000.4,0005.05,0007.59,0004.95
2022-09-11 08:43:00,,0834.1,5.00,0.00,27.9,26.4,00.0,36.6,29.7,25.2,-000.2,0005.03,0007.40,0004.94
2022-09-11 08:44:00,,0834.1,5.01,0.00,27.9,26.4,00.0,36.6,29.8,25.2,0000.0,0005.02,0007.29,0004.91
2022-09-11 08:45:00,,0834.1,5.01,0.00,27.9,26.4,00.0,36.6,29.8,25.1,0000.0,0005.01,0007.33,0004.90
2022-09-11 08:46:00,,0834.1,4.99,0.00,27.9,26.4,00.0,36.6,29.8,25.1,0000.0,0005.02,0007.40,0004.89
2022-09-11 08:47:00,,0834.1,5.00,0.00,27.9,26.5,00.0,36.6,29.8,25.0,0000.0,0005.02,0007.43,0004.88
2022-09-11 08:48:00,,0834.1,5.01,0.00,27.9,26.5,00.0,36.6,29.8,25.0,0000.0,0005.00,0007.42,0004.86
2022-09-11 08:49:00,,0834.1,5.01,0.00,27.9,26.5,00.0,36.6,29.8,24.9,0000.0,0005.00,0007.47,0004.84
2022-09-11 08:50:00,,0834.1,4.99,0.00,27.9,26.4,00.0,36.7,29.8,24.8,0000.0,0004.98,0007.43,0004.83
2022-09-11 08:51:00,,0834.1,5.00,0.00,28.0,26.4,00.0,36.7,29.8,24.8,0000.0,0005.01,0007.48,0004.84
2022-09-11 08:52:00,,0834.1,5.01,0.00,28.0,26.4,00.0,36.7,29.8,24.7,0000.0,0005.01,0007.43,0004.85
2022-09-11 08:53:00,,0834.1,5.00,0.00,28.0,26.4,00.0,36.7,29.8,24.7,0000.0,0005.04,0007.29,0004.87
2022-09-11 08:54:00,,0834.1,5.01,0.00,28.0,26.4,00.0,36.7,29.8,24.7,0000.0,0005.05,0007.23,0004.88
2022-09-11 08:55:00,,0834.0,5.01,0.00,28.0,26.4,00.0,36.7,29.8,24.6,0000.0,0005.06,0007.19,0004.90
2022-09-11 08:56:00,,0834.1,5.00,0.00,28.0,26.4,00.0,36.7,29.8,24.6,0000.0,0005.09,0007.20,0004.93
2022-09-11 08:57:00,,0834.0,4.99,0.00,28.0,26.4,00.0,36.7,29.8,24.5,0000.3,0005.09,0007.41,0004.95
2022-09-11 08:58:00,,0834.0,5.00,0.00,28.0,26.4,00.0,36.7,29.8,24.4,0001.5,0005.12,0007.41,0004.97
2022-09-11 08:59:00,,0834.0,5.00,0.00,28.0,26.4,00.0,36.7,29.8,24.4,0001.8,0005.13,0007.39,0004.99
